TimeEST,TemperatureF,Dew PointF,Humidity,Sea Level PressureIn,VisibilityMPH,Wind Direction,Wind SpeedMPH,Gust SpeedMPH,PrecipitationIn,Events,Conditions,WindDirDegrees,DateUTC
12:13 AM,15.1,12.4,89,30.02,7.0,NNW,8.1,-,N/A,Snow,Light Snow,330,2013-02-17 05:13:00
12:32 AM,14.2,11.3,88,30.03,10.0,NNW,6.9,-,N/A,Snow,Light Snow,340,2013-02-17 05:32:00
12:52 AM,13.8,11.3,90,30.03,5.0,NNW,6.9,-,N/A,,Mostly Cloudy,330,2013-02-17 05:52:00
1:13 AM,14.5,10.8,85,30.03,10.0,NNW,6.9,-,N/A,,Overcast,340,2013-02-17 06:13:00
1:32 AM,14.0,8.8,80,30.04,10.0,NW,8.1,-,N/A,,Overcast,320,2013-02-17 06:32:00
1:52 AM,12.7,7.5,80,30.04,10.0,NW,6.9,-,N/A,,Mostly Cloudy,320,2013-02-17 06:52:00
2:12 AM,11.3,6.8,82,30.04,10.0,NNW,6.9,-,N/A,,Scattered Clouds,330,2013-02-17 07:12:00
2:32 AM,11.1,6.6,82,30.05,10.0,NNW,8.1,-,N/A,,Scattered Clouds,330,2013-02-17 07:32:00
2:53 AM,9.7,5.7,84,30.06,10.0,NW,6.9,-,N/A,,Scattered Clouds,310,2013-02-17 07:53:00
3:12 AM,9.5,5.4,83,30.06,10.0,WNW,3.5,-,N/A,,Overcast,300,2013-02-17 08:12:00
3:32 AM,8.6,4.6,84,30.06,10.0,NW,4.6,-,N/A,,Overcast,310,2013-02-17 08:32:00
3:53 AM,7.9,3.7,83,30.06,10.0,WNW,3.5,-,N/A,,Scattered Clouds,300,2013-02-17 08:53:00
4:12 AM,7.3,3.0,82,30.07,10.0,Calm,Calm,-,N/A,,Clear,0,2013-02-17 09:12:00
4:32 AM,6.4,2.8,85,30.07,10.0,WNW,3.5,-,N/A,,Clear,300,2013-02-17 09:32:00
4:53 AM,5.9,2.5,86,30.07,10.0,WNW,3.5,-,N/A,,Clear,300,2013-02-17 09:53:00
5:12 AM,5.5,1.9,85,30.07,10.0,Calm,Calm,-,N/A,,Clear,0,2013-02-17 10:12:00
5:32 AM,3.7,0.7,87,30.08,10.0,Calm,Calm,-,N/A,,Clear,0,2013-02-17 10:32:00
5:53 AM,3.0,0.3,88,30.08,10.0,Calm,Calm,-,N/A,,Clear,0,2013-02-17 10:53:00
6:12 AM,2.7,-0.2,88,30.09,10.0,West,4.6,-,N/A,,Clear,270,2013-02-17 11:12:00
6:32 AM,3.6,0.5,87,30.10,10.0,WNW,3.5,-,N/A,,Clear,290,2013-02-17 11:32:00
6:53 AM,3.9,0.5,86,30.10,10.0,West,4.6,-,N/A,,Clear,280,2013-02-17 11:53:00
7:12 AM,3.9,0.5,86,30.10,10.0,WNW,5.8,-,N/A,,Clear,290,2013-02-17 12:12:00
7:32 AM,3.9,-0.0,84,30.11,10.0,WNW,4.6,-,N/A,,Clear,290,2013-02-17 12:32:00
7:53 AM,4.1,0.3,84,30.11,10.0,WNW,5.8,-,N/A,,Clear,300,2013-02-17 12:53:00
8:12 AM,4.8,0.7,83,30.12,10.0,WNW,6.9,-,N/A,,Clear,300,2013-02-17 13:12:00
8:33 AM,6.1,1.8,82,30.12,10.0,WNW,4.6,-,N/A,,Clear,300,2013-02-17 13:33:00
8:53 AM,7.3,2.3,80,30.12,10.0,WNW,8.1,-,N/A,,Clear,300,2013-02-17 13:53:00
9:12 AM,8.4,2.8,78,30.12,10.0,WNW,8.1,-,N/A,,Clear,290,2013-02-17 14:12:00
9:33 AM,9.9,3.9,77,30.13,10.0,WNW,8.1,-,N/A,,Clear,300,2013-02-17 14:33:00
9:53 AM,11.1,4.5,75,30.13,10.0,NW,8.1,-,N/A,,Clear,310,2013-02-17 14:53:00
10:12 AM,12.2,5.4,74,30.14,10.0,NW,5.8,-,N/A,,Clear,310,2013-02-17 15:12:00
10:33 AM,13.8,5.7,70,30.15,10.0,NW,8.1,-,N/A,,Clear,320,2013-02-17 15:33:00
10:53 AM,14.7,5.7,68,30.15,10.0,NW,6.9,-,N/A,,Clear,320,2013-02-17 15:53:00
11:12 AM,15.4,5.4,64,30.15,10.0,NNW,9.2,-,N/A,,Clear,330,2013-02-17 16:12:00
11:33 AM,16.3,5.5,63,30.16,10.0,NW,8.1,-,N/A,,Clear,320,2013-02-17 16:33:00
11:53 AM,17.1,5.4,60,30.15,10.0,North,5.8,-,N/A,,Clear,350,2013-02-17 16:53:00
12:12 PM,17.6,5.2,58,30.15,10.0,North,8.1,-,N/A,,Clear,350,2013-02-17 17:12:00
12:33 PM,17.1,4.1,57,30.15,10.0,NW,9.2,-,N/A,,Scattered Clouds,320,2013-02-17 17:33:00
12:53 PM,18.5,3.2,51,30.14,10.0,NNW,8.1,17.3,N/A,,Scattered Clouds,340,2013-02-17 17:53:00
1:12 PM,18.9,4.1,53,30.14,10.0,NNW,10.4,16.1,N/A,,Clear,340,2013-02-17 18:12:00
1:33 PM,19.6,5.2,54,30.14,10.0,NW,9.2,-,N/A,,Scattered Clouds,320,2013-02-17 18:33:00
1:52 PM,19.6,5.2,54,30.14,10.0,NW,9.2,-,N/A,,Mostly Cloudy,320,2013-02-17 18:52:00
2:12 PM,19.6,4.8,53,30.14,10.0,WNW,11.5,17.3,N/A,,Overcast,300,2013-02-17 19:12:00
2:33 PM,18.7,3.2,51,30.14,10.0,WNW,12.7,-,N/A,,Mostly Cloudy,300,2013-02-17 19:33:00
2:52 PM,19.6,4.5,52,30.14,10.0,NW,10.4,18.4,N/A,,Scattered Clouds,320,2013-02-17 19:52:00
3:12 PM,18.7,4.1,53,30.14,10.0,NNW,10.4,-,N/A,,Mostly Cloudy,330,2013-02-17 20:12:00
3:33 PM,20.3,4.5,50,30.15,10.0,NW,6.9,-,N/A,,Overcast,310,2013-02-17 20:33:00
3:52 PM,19.9,2.8,48,30.15,10.0,NW,10.4,20.7,N/A,,Mostly Cloudy,320,2013-02-17 20:52:00
4:12 PM,18.5,3.0,51,30.15,10.0,NW,5.8,-,N/A,,Scattered Clouds,320,2013-02-17 21:12:00
4:33 PM,18.5,3.4,52,30.15,10.0,NW,6.9,-,N/A,,Overcast,310,2013-02-17 21:33:00
4:52 PM,18.5,3.7,53,30.15,10.0,NW,5.8,-,N/A,,Scattered Clouds,310,2013-02-17 21:52:00
5:12 PM,18.0,3.6,53,30.15,10.0,NNW,4.6,-,N/A,,Clear,340,2013-02-17 22:12:00
5:33 PM,17.6,3.7,55,30.15,10.0,NNW,5.8,-,N/A,,Clear,330,2013-02-17 22:33:00
5:52 PM,17.2,3.9,56,30.15,10.0,Calm,Calm,-,N/A,,Scattered Clouds,0,2013-02-17 22:52:00
6:12 PM,16.3,4.1,59,30.16,10.0,Calm,Calm,-,N/A,,Overcast,0,2013-02-17 23:12:00
6:33 PM,14.0,4.8,67,30.16,10.0,Calm,Calm,-,N/A,,Mostly Cloudy,0,2013-02-17 23:33:00
6:52 PM,13.6,4.5,67,30.16,10.0,Calm,Calm,-,N/A,,Mostly Cloudy,0,2013-02-17 23:52:00
7:13 PM,10.9,5.0,77,30.17,10.0,Calm,Calm,-,N/A,,Scattered Clouds,0,2013-02-18 00:13:00
7:33 PM,10.2,4.5,78,30.16,10.0,Calm,Calm,-,N/A,,Clear,0,2013-02-18 00:33:00
7:52 PM,8.6,4.1,82,30.16,10.0,Calm,Calm,-,N/A,,Clear,0,2013-02-18 00:52:00
8:13 PM,7.3,3.6,85,30.16,10.0,Calm,Calm,-,N/A,,Clear,0,2013-02-18 01:13:00
8:33 PM,5.9,2.3,85,30.16,10.0,Calm,Calm,-,N/A,,Clear,0,2013-02-18 01:33:00
8:52 PM,6.1,2.7,86,30.17,10.0,Calm,Calm,-,N/A,,Clear,0,2013-02-18 01:52:00
9:13 PM,4.5,1.8,89,30.18,10.0,Calm,Calm,-,N/A,,Clear,0,2013-02-18 02:13:00
9:32 PM,4.3,1.4,88,30.18,10.0,Calm,Calm,-,N/A,,Clear,0,2013-02-18 02:32:00
9:53 PM,3.4,0.7,89,30.18,10.0,Calm,Calm,-,N/A,,Clear,0,2013-02-18 02:53:00
10:13 PM,3.2,0.3,88,30.18,10.0,Calm,Calm,-,N/A,,Clear,0,2013-02-18 03:13:00
10:32 PM,3.9,1.0,88,30.17,10.0,Calm,Calm,-,N/A,,Clear,0,2013-02-18 03:32:00
10:52 PM,2.1,-0.8,88,30.18,10.0,Calm,Calm,-,N/A,,Clear,0,2013-02-18 03:52:00
11:13 PM,4.8,1.4,86,30.18,10.0,Calm,Calm,-,N/A,,Clear,0,2013-02-18 04:13:00
11:32 PM,1.0,-2.2,86,30.17,10.0,SE,3.5,-,N/A,,Clear,140,2013-02-18 04:32:00
11:53 PM,2.3,-0.9,86,30.17,10.0,SE,3.5,-,N/A,,Clear,140,2013-02-18 04:53:00